Location: Bratislava
(48.1500°N, 17.1170°E)
Time: 03:45:23
(UTC+02:00)

Amateur Radio Satellites - All Passes

Search period start: 25 June 2017 03:15
Search period end: 26 June 2017 03:15
Location: Bratislava, 48.1500°N, 17.1170°E

Satellite Date Start Highest point End Downlink Frequencies (MHz)
Time Altitude Azimuth
Oscar 19 25 Jun 03:21:27 03:26:17 43° 293° (WNW) 03:31:06 437.125/150
AO-7 25 Jun 03:38:46 03:46:14 34° 95° (E) 03:53:37 .
BEESAT 3 25 Jun 03:49:56 03:52:04 14° 26° (NNE) 03:54:10 437.485
ITAMSAT 1 25 Jun 03:56:27 04:01:22 40° 98° (E) 04:06:16 435.822/435.867
NO-84 25 Jun 03:59:06 04:03:27 60° 25° (NNE) 04:07:46 435.350 FM
MOZHAYETS 4 25 Jun 04:01:55 04:06:12 37° 263° (W) 04:10:32
RS-15 25 Jun 04:04:37 04:16:24 46° 27° (NNE) 04:27:42 29.354- 29.394
KKS-1 25 Jun 04:05:57 04:10:04 40° 68° (ENE) 04:14:15 437.445
Gurwin Techsat 1B 25 Jun 04:07:05 04:11:41 30° 297° (WNW) 04:16:15 435.225
ITUPSAT 1 25 Jun 04:12:45 04:16:24 21° 268° (W) 04:20:04 437.325
BEESAT 25 Jun 04:24:09 04:27:13 17° 270° (W) 04:30:18 436.000
STARS 25 Jun 04:38:30 04:42:33 38° 67° (ENE) 04:46:39 437.465
CUBESAT XI-V 25 Jun 04:39:44 04:44:22 74° 258° (WSW) 04:49:01 437.345
BEESAT 2 25 Jun 04:46:20 04:48:57 16° 30° (NNE) 04:51:33 435.950
AO-85 25 Jun 04:51:33 04:55:28 46° 46° (NE) 04:59:35 145.980
BEESAT 3 25 Jun 05:26:31 05:30:30 55° 47° (NE) 05:34:26 437.485
AO-7 25 Jun 05:31:14 05:39:31 66° 296° (WNW) 05:47:45 .
ITAMSAT 1 25 Jun 05:36:06 05:40:45 33° 296° (WNW) 05:45:23 435.822/435.867
DOVE 4 25 Jun 05:36:45 05:40:36 23° 92° (E) 05:44:34 437.250
NO-84 25 Jun 05:36:56 05:40:57 35° 224° (SW) 05:44:51 435.350 FM
KKS-1 25 Jun 05:43:09 05:46:46 24° 266° (W) 05:50:26 437.445
O/OREOS (USA 219) 25 Jun 05:56:08 05:58:49 15° 44° (NE) 06:01:29 437.305
XW-2F 25 Jun 06:08:07 06:10:29 16° 91° (E) 06:12:50 145.980 - 146.000
XW-2D 25 Jun 06:11:11 06:13:53 18° 92° (E) 06:16:34 145.860 - 145.880
STARS 25 Jun 06:15:22 06:19:00 25° 266° (W) 06:22:41 437.465
RS-15 25 Jun 06:17:58 06:30:14 83° 236° (SW) 06:41:52 29.354- 29.394
LilacSat-2 25 Jun 06:18:05 06:21:08 22° 93° (E) 06:24:09 437.200
XW-2B 25 Jun 06:19:56 06:22:56 22° 93° (E) 06:25:54 145.730 - 145.750
BEESAT 2 25 Jun 06:23:19 06:27:25 74° 51° (NE) 06:31:27 435.950
STRAND 1 25 Jun 06:29:21 06:33:58 35° 65° (ENE) 06:38:38 437.568
AO-85 25 Jun 06:32:19 06:35:40 24° 243° (WSW) 06:39:09 145.980
CUTE-I 25 Jun 06:32:43 06:37:28 31° 95° (E) 06:42:11 437.470
XW-2C 25 Jun 06:35:04 06:38:30 32° 96° (E) 06:41:54 145.795 - 145.815
HO-68 25 Jun 06:39:44 06:43:16 14° 84° (E) 06:46:47 435.675
YUBILEINY 25 Jun 06:40:31 06:43:47 12° 44° (NE) 06:47:01 435.215
KAITUO 1B 25 Jun 06:51:24 06:54:54 38° 98° (E) 06:58:21 145.475/437.950
BEESAT 3 25 Jun 07:04:53 07:07:43 19° 247° (WSW) 07:10:32 437.485
DOVE 4 25 Jun 07:13:51 07:18:30 52° 289° (WNW) 07:23:25 437.250
AO-7 25 Jun 07:25:12 07:30:49 20° 319° (NW) 07:36:26 .
NUDT-PHONESAT 25 Jun 07:28:15 07:31:59 79° 287° (WNW) 07:35:40 437.300
O/OREOS (USA 219) 25 Jun 07:34:24 07:38:55 90° 225° (SW) 07:43:23 437.305
FO-29 25 Jun 07:35:59 07:39:23 15° 45° (NE) 07:42:59 435.910
XW-2F 25 Jun 07:41:16 07:44:52 44° 288° (WNW) 07:48:26 145.980 - 146.000
XW-2D 25 Jun 07:44:43 07:48:15 38° 290° (WNW) 07:51:45 145.860 - 145.880
LilacSat-2 25 Jun 07:52:03 07:55:28 32° 291° (WNW) 07:58:51 437.200
XW-2B 25 Jun 07:53:47 07:57:11 32° 291° (WNW) 08:00:33 145.730 - 145.750
BEESAT 2 25 Jun 08:02:26 08:04:38 14° 249° (WSW) 08:06:48 435.950
STRAND 1 25 Jun 08:08:24 08:13:07 36° 263° (W) 08:17:53 437.568
SEEDS 25 Jun 08:08:59 08:12:53 37° 97° (E) 08:16:45 437.485
XW-2C 25 Jun 08:09:33 08:12:33 22° 294° (WNW) 08:15:31 145.795 - 145.815
M-CUBED/EXP-1 PRIME 25 Jun 08:11:36 08:14:00 19° 59° (ENE) 08:16:24 437.505
CUTE-I 25 Jun 08:12:34 08:17:39 44° 293° (WNW) 08:22:43 437.470
TIGRISAT 25 Jun 08:18:54 08:20:41 12° 55° (NE) 08:22:29 435.000
CUTE 1.7 + AOD 2 25 Jun 08:24:43 08:28:57 85° 105° (ESE) 08:33:08 437.475
HO-68 25 Jun 08:25:06 08:32:18 71° 104° (ESE) 08:39:27 435.675
PRISM 25 Jun 08:25:08 08:26:52 12° 58° (ENE) 08:28:35 437.425
KAITUO 1B 25 Jun 08:25:59 08:28:39 19° 296° (WNW) 08:31:19 145.475/437.950
AO-73 25 Jun 08:26:11 08:28:57 16° 89° (E) 08:31:41 145.935
Tancredo 1 25 Jun 08:26:16 08:28:28 18° 140° (SE) 08:30:40 437.200
CUBEBUG 2 25 Jun 08:27:28 08:32:06 49° 99° (E) 08:36:36 437.445
XW-2A 25 Jun 08:30:52 08:34:19 79° 103° (ESE) 08:37:43 145.665 - 145.685
RS-15 25 Jun 08:31:53 08:40:48 25° 261° (W) 08:49:27 29.354- 29.394
YUBILEINY 25 Jun 08:34:55 08:43:26 48° 70° (ENE) 08:51:50 435.215
ISS 25 Jun 08:36:42 08:38:25 14° 136° (SE) 08:40:10 437.550
Oscar 11 25 Jun 08:53:47 08:57:13 23° 93° (E) 09:00:36 .
UNISAT 6 25 Jun 08:58:12 09:02:06 27° 64° (ENE) 09:06:03 437.425
ZACube-1 25 Jun 08:59:45 09:03:57 37° 96° (E) 09:08:01 437.345
AAUSAT CUBESAT 2 25 Jun 09:02:13 09:06:20 67° 102° (ESE) 09:10:24 437.432
UWE-3 25 Jun 09:02:51 09:07:29 68° 101° (ESE) 09:11:59 435.000/436.395/437.385
O/OREOS (USA 219) 25 Jun 09:16:24 09:17:33 11° 263° (W) 09:18:41 437.305
FO-29 25 Jun 09:16:50 09:22:53 60° 68° (ENE) 09:29:46 435.910
SEEDS 25 Jun 09:45:03 09:48:24 24° 295° (WNW) 09:51:43 437.485
M-CUBED/EXP-1 PRIME 25 Jun 09:45:24 09:48:21 29° 257° (WSW) 09:51:16 437.505
TIGRISAT 25 Jun 09:51:57 09:56:33 77° 75° (ENE) 10:01:15 435.000
PRISM 25 Jun 09:57:30 10:01:33 80° 256° (WSW) 10:05:38 437.425
Tancredo 1 25 Jun 10:00:41 10:03:44 86° 344° (NNW) 10:06:47 437.200
AO-73 25 Jun 10:01:11 10:05:38 61° 287° (WNW) 10:09:56 145.935
CUTE 1.7 + AOD 2 25 Jun 10:02:24 10:04:09 12° 302° (WNW) 10:05:54 437.475
CUBEBUG 2 25 Jun 10:04:40 10:08:23 23° 297° (WNW) 10:12:03 437.445
QB50P2 25 Jun 10:08:33 10:10:03 12° 57° (ENE) 10:11:33 145.880/145.840
EO-88 25 Jun 10:10:53 10:13:57 25° 95° (E) 10:17:00 145.990 - 145.960
ISS 25 Jun 10:11:09 10:14:25 70° 153° (SSE) 10:17:42 437.550
HO-68 25 Jun 10:13:30 10:19:30 30° 305° (NW) 10:25:28 435.675
Oscar 11 25 Jun 10:29:27 10:33:30 40° 291° (WNW) 10:37:31 .
EO-79 25 Jun 10:31:45 10:34:35 18° 61° (ENE) 10:37:25 145.935-145.965
YUBILEINY 25 Jun 10:31:59 10:40:14 46° 273° (W) 10:48:26 435.215
UNISAT 6 25 Jun 10:34:18 10:38:37 40° 263° (W) 10:43:04 437.425
DELFI C3 25 Jun 10:35:19 10:39:16 72° 102° (ESE) 10:43:12 145.870
ZACube-1 25 Jun 10:36:17 10:40:05 27° 295° (WNW) 10:43:48 437.345
AAUSAT CUBESAT 2 25 Jun 10:39:01 10:41:17 15° 300° (WNW) 10:43:34 437.432
UWE-3 25 Jun 10:40:24 10:43:24 17° 300° (WNW) 10:46:23 435.000/436.395/437.385
DUCHIFAT 1 25 Jun 10:46:15 10:49:19 20° 62° (ENE) 10:52:24 145.980
AIST 2D 25 Jun 10:48:39 10:51:59 39° 71° (ENE) 10:55:20 435.315
NANOSAT C BR1 25 Jun 10:53:54 10:57:23 25° 65° (ENE) 11:00:54 145.865
FO-29 25 Jun 11:03:13 11:08:28 29° 271° (W) 11:14:18 435.910
ESTCUBE 1 25 Jun 11:07:33 11:09:22 12° 87° (E) 11:11:11 437.505/2401.250
Oscar 19 25 Jun 11:27:55 11:29:14 11° 51° (NE) 11:30:34 437.125/150
POLYITAN 1 25 Jun 11:30:07 11:34:20 62° 72° (ENE) 11:38:35 437.675
TIGRISAT 25 Jun 11:31:25 11:33:49 14° 273° (W) 11:36:14 435.000
Tancredo 1 25 Jun 11:36:37 11:39:32 40° 357° (N) 11:42:27 437.200
QB50P2 25 Jun 11:40:52 11:45:08 86° 75° (ENE) 11:49:27 145.880/145.840
EO-88 25 Jun 11:44:29 11:47:36 27° 292° (WNW) 11:50:41 145.990 - 145.960
ISS 25 Jun 11:47:51 11:51:03 46° 353° (N) 11:54:15 437.550
BUGSAT 1 25 Jun 11:57:59 12:01:40 32° 67° (ENE) 12:05:26 437.445
EO-79 25 Jun 12:05:44 12:09:55 58° 259° (W) 12:14:10 145.935-145.965
LO-87 25 Jun 12:08:38 12:12:18 87° 109° (ESE) 12:15:56 145.935 - 145.965
DELFI C3 25 Jun 12:11:43 12:13:31 13° 300° (WNW) 12:15:18 145.870
Gurwin Techsat 1B 25 Jun 12:14:00 12:17:28 18° 56° (NE) 12:20:56 435.225
DUCHIFAT 1 25 Jun 12:20:33 12:24:39 49° 260° (W) 12:28:49 145.980
AIST 2D 25 Jun 12:23:06 12:25:23 16° 269° (W) 12:27:39 435.315
PCSat 25 Jun 12:25:14 12:30:26 49° 116° (ESE) 12:35:40 145.827
NANOSAT C BR1 25 Jun 12:29:00 12:32:56 37° 263° (W) 12:36:56 145.865
ESTCUBE 1 25 Jun 12:42:16 12:46:46 81° 284° (WNW) 12:51:15 437.505/2401.250
VELOX 1 25 Jun 12:46:35 12:50:29 30° 96° (E) 12:54:22 145.980
AO-7 25 Jun 12:52:50 12:58:16 20° 40° (NE) 13:03:43 .
Oscar 19 25 Jun 13:02:29 13:07:33 60° 70° (ENE) 13:12:37 437.125/150
POLYITAN 1 25 Jun 13:08:01 13:10:31 15° 270° (W) 13:13:03 437.675
DX 1 25 Jun 13:08:37 13:11:36 18° 91° (E) 13:14:34 434.975-435.025
SPROUT 25 Jun 13:11:40 13:15:57 58° 101° (E) 13:20:11 437.525
Tancredo 1 25 Jun 13:12:23 13:15:25 63° 16° (NNE) 13:18:27 437.200
QB50P2 25 Jun 13:20:29 13:21:32 11° 273° (W) 13:22:35 145.880/145.840
ISS 25 Jun 13:24:37 13:27:52 54° 13° (NNE) 13:31:07 437.550
UKube-1 25 Jun 13:26:49 13:29:52 18° 92° (E) 13:32:54 .
BUGSAT 1 25 Jun 13:33:30 13:37:03 27° 265° (W) 13:40:40 437.445
50 SAT 25 Jun 13:33:45 13:37:01 42° 100° (E) 13:40:16 437.505
SO-50 25 Jun 13:36:48 13:38:29 12° 109° (ESE) 13:40:09 436.795
ITAMSAT 1 25 Jun 13:41:20 13:44:20 16° 54° (NE) 13:47:22 435.822/435.867
Gurwin Techsat 1B 25 Jun 13:51:26 13:56:46 83° 257° (WSW) 14:02:07 435.225
PCSat 25 Jun 14:09:03 14:14:01 35° 317° (NW) 14:19:01 145.827
ESTCUBE 1 25 Jun 14:21:11 14:22:50 12° 304° (NW) 14:24:28 437.505/2401.250
VELOX 1 25 Jun 14:22:58 14:26:56 33° 293° (WNW) 14:30:54 145.980
AO-7 25 Jun 14:41:21 14:49:30 63° 63° (ENE) 14:57:44 .
BEESAT 25 Jun 14:42:27 14:44:35 13° 87° (E) 14:46:44 436.000
Oscar 19 25 Jun 14:43:27 14:47:16 21° 269° (W) 14:51:06 437.125/150
DX 1 25 Jun 14:43:50 14:48:06 54° 289° (WNW) 14:52:22 434.975-435.025
Tancredo 1 25 Jun 14:48:10 14:50:52 29° 216° (SW) 14:53:33 437.200
SPROUT 25 Jun 14:48:32 14:51:26 18° 299° (WNW) 14:54:19 437.525
ISS 25 Jun 15:01:11 15:04:21 44° 212° (SSW) 15:07:30 437.550
UKube-1 25 Jun 15:01:59 15:06:11 51° 290° (WNW) 15:10:22 .
50 SAT 25 Jun 15:07:28 15:09:30 15° 297° (WNW) 15:11:31 437.505
SO-50 25 Jun 15:13:39 15:18:12 82° 127° (SE) 15:22:45 436.795
ITAMSAT 1 25 Jun 15:17:50 15:23:03 86° 73° (ENE) 15:28:19 435.822/435.867
Gurwin Techsat 1B 25 Jun 15:35:15 15:37:32 13° 274° (W) 15:39:49 435.225
MOZHAYETS 4 25 Jun 15:52:51 15:57:11 39° 97° (E) 16:01:28
PCSat 25 Jun 15:56:34 15:59:05 13° 341° (NNW) 16:01:37 145.827
ITUPSAT 1 25 Jun 16:07:54 16:12:44 76° 103° (ESE) 16:17:30 437.325
BEESAT 25 Jun 16:18:12 16:23:02 86° 284° (WNW) 16:27:48 436.000
CUTE-I 25 Jun 16:21:46 16:24:07 13° 52° (NE) 16:26:29 437.470
CUBESAT XI-V 25 Jun 16:33:10 16:36:40 21° 92° (E) 16:40:10 437.345
AO-7 25 Jun 16:35:18 16:42:44 35° 264° (W) 16:50:15 .
DOVE 4 25 Jun 16:46:09 16:49:44 28° 65° (ENE) 16:53:27 437.250
XW-2F 25 Jun 16:52:52 16:55:00 15° 62° (ENE) 16:57:08 145.980 - 146.000
SO-50 25 Jun 16:55:39 16:59:12 22° 328° (NNW) 17:02:46 436.795
XW-2D 25 Jun 16:56:10 16:58:39 17° 63° (ENE) 17:01:09 145.860 - 145.880
ITAMSAT 1 25 Jun 17:00:26 17:03:13 14° 272° (W) 17:06:01 435.822/435.867
LilacSat-2 25 Jun 17:03:30 17:06:23 20° 65° (ENE) 17:09:16 437.200
XW-2B 25 Jun 17:04:47 17:07:35 20° 64° (ENE) 17:10:23 145.730 - 145.750
HO-68 25 Jun 17:12:42 17:17:29 19° 48° (NE) 17:22:15 435.675
XW-2C 25 Jun 17:19:40 17:22:57 28° 67° (ENE) 17:26:15 145.795 - 145.815
KKS-1 25 Jun 17:29:14 17:33:35 48° 100° (E) 17:37:55 437.445
MOZHAYETS 4 25 Jun 17:30:20 17:34:11 27° 296° (WNW) 17:38:02
KAITUO 1B 25 Jun 17:34:38 17:37:59 31° 69° (ENE) 17:41:21 145.475/437.950
PCSat 25 Jun 17:43:57 17:45:06 11° 8° (N) 17:46:14 145.827
ITUPSAT 1 25 Jun 17:46:56 17:49:59 17° 303° (WNW) 17:53:01 437.325
CUTE 1.7 + AOD 2 25 Jun 17:47:43 17:49:22 12° 58° (ENE) 17:51:03 437.475
BEESAT 25 Jun 17:57:40 18:00:04 14° 305° (NW) 18:02:27 436.000
CUTE-I 25 Jun 17:57:56 18:03:13 69° 71° (ENE) 18:08:33 437.470
STARS 25 Jun 17:59:59 18:04:14 43° 99° (E) 18:08:28 437.465
CUBESAT XI-V 25 Jun 18:09:52 18:14:18 48° 290° (WNW) 18:18:43 437.345
NUDT-PHONESAT 25 Jun 18:10:21 18:14:07 77° 76° (ENE) 18:17:54 437.300
DOVE 4 25 Jun 18:23:41 18:27:24 31° 265° (W) 18:31:15 437.250
XW-2F 25 Jun 18:24:56 18:28:43 58° 260° (W) 18:32:30 145.980 - 146.000
XW-2D 25 Jun 18:28:46 18:32:30 48° 261° (W) 18:36:14 145.860 - 145.880
UWE-3 25 Jun 18:29:32 18:31:30 13° 56° (NE) 18:33:29 435.000/436.395/437.385
LilacSat-2 25 Jun 18:36:48 18:40:27 38° 263° (W) 18:44:05 437.200
XW-2B 25 Jun 18:37:54 18:41:31 40° 262° (W) 18:45:10 145.730 - 145.750
SO-50 25 Jun 18:40:36 18:41:21 10° 352° (N) 18:42:06 436.795
XW-2C 25 Jun 18:53:48 18:57:06 27° 265° (W) 19:00:25 145.795 - 145.815
HO-68 25 Jun 18:56:55 19:04:06 74° 69° (ENE) 19:11:18 435.675
SEEDS 25 Jun 19:03:44 19:07:40 41° 70° (ENE) 19:11:37 437.485
XW-2A 25 Jun 19:05:10 19:08:28 44° 72° (ENE) 19:11:48 145.665 - 145.685
KKS-1 25 Jun 19:06:24 19:09:52 22° 298° (WNW) 19:13:19 437.445
KAITUO 1B 25 Jun 19:08:58 19:12:01 23° 266° (W) 19:15:06 145.475/437.950
CUTE 1.7 + AOD 2 25 Jun 19:20:18 19:24:34 89° 255° (WSW) 19:28:50 437.475
AO-73 25 Jun 19:24:37 19:28:01 21° 62° (ENE) 19:31:27 145.935
PCSat 25 Jun 19:26:27 19:30:40 22° 34° (NNE) 19:34:52 145.827
CUBEBUG 2 25 Jun 19:28:22 19:32:55 61° 72° (ENE) 19:37:36 437.445
STARS 25 Jun 19:36:49 19:40:21 24° 297° (WNW) 19:43:54 437.465
CUTE-I 25 Jun 19:40:04 19:43:47 19° 270° (W) 19:47:33 437.470
Oscar 11 25 Jun 19:51:46 19:55:27 28° 66° (ENE) 19:59:09 .
AAUSAT CUBESAT 2 25 Jun 19:55:17 19:59:23 68° 73° (ENE) 20:03:29 437.432
ZACube-1 25 Jun 19:58:20 20:02:40 45° 70° (ENE) 20:07:04 437.345
UWE-3 25 Jun 20:02:33 20:07:09 81° 76° (ENE) 20:11:52 435.000/436.395/437.385
STRAND 1 25 Jun 20:14:34 20:19:41 59° 102° (ESE) 20:24:46 437.568
SO-50 25 Jun 20:21:51 20:23:51 13° 17° (NNE) 20:25:51 436.795
XW-2A 25 Jun 20:39:40 20:41:27 14° 269° (W) 20:43:16 145.665 - 145.685
SEEDS 25 Jun 20:40:17 20:43:32 21° 268° (W) 20:46:46 437.485
RS-15 25 Jun 20:44:36 20:55:54 47° 111° (ESE) 21:07:22 29.354- 29.394
HO-68 25 Jun 20:46:44 20:52:29 25° 269° (W) 20:58:16 435.675
AO-85 25 Jun 20:49:33 20:53:19 39° 121° (ESE) 20:57:00 145.980
EO-88 25 Jun 20:52:16 20:55:00 20° 65° (ENE) 20:57:44 145.990 - 145.960
BEESAT 3 25 Jun 20:56:51 21:00:15 28° 117° (ESE) 21:03:42 437.485
AO-73 25 Jun 20:59:27 21:03:54 53° 261° (W) 21:08:24 145.935
CUBEBUG 2 25 Jun 21:06:50 21:09:57 18° 271° (W) 21:13:09 437.445
PCSat 25 Jun 21:09:23 21:14:52 85° 56° (NE) 21:20:18 145.827
DELFI C3 25 Jun 21:23:43 21:27:36 65° 74° (ENE) 21:31:30 145.870
Oscar 11 25 Jun 21:27:31 21:31:29 34° 264° (W) 21:35:29 .
AAUSAT CUBESAT 2 25 Jun 21:33:28 21:35:18 13° 272° (W) 21:37:10 437.432
ZACube-1 25 Jun 21:35:30 21:39:09 23° 268° (W) 21:42:49 437.345
PRISM 25 Jun 21:37:36 21:38:27 11° 88° (E) 21:39:18 437.425
YUBILEINY 25 Jun 21:40:21 21:48:36 47° 87° (E) 21:56:54 435.215
TIGRISAT 25 Jun 21:41:31 21:43:49 13° 87° (E) 21:46:05 435.000
UWE-3 25 Jun 21:42:02 21:44:13 13° 273° (W) 21:46:26 435.000/436.395/437.385
O/OREOS (USA 219) 25 Jun 21:50:02 21:54:27 52° 110° (ESE) 21:58:52 437.305
STRAND 1 25 Jun 21:54:28 21:58:28 23° 300° (WNW) 22:02:27 437.568
BEESAT 2 25 Jun 21:55:02 21:58:45 39° 120° (ESE) 22:02:32 435.950
SO-50 25 Jun 22:01:27 22:05:37 35° 41° (NE) 22:09:48 436.795
FO-29 25 Jun 22:06:22 22:13:48 45° 96° (E) 22:21:12 435.910
ESTCUBE 1 25 Jun 22:09:55 22:13:03 19° 61° (ENE) 22:16:11 437.505/2401.250
UNISAT 6 25 Jun 22:22:09 22:26:26 34° 96° (E) 22:30:38 437.425
EO-88 25 Jun 22:25:04 22:28:28 35° 263° (W) 22:31:54 145.990 - 145.960
AO-85 25 Jun 22:30:17 22:33:47 29° 320° (NW) 22:37:14 145.980
NO-84 25 Jun 22:32:37 22:36:32 55° 141° (SE) 22:40:43 435.350 FM
BEESAT 3 25 Jun 22:33:56 22:37:42 39° 316° (NW) 22:41:32 437.485
LO-87 25 Jun 22:47:46 22:51:15 58° 74° (ENE) 22:54:48 145.935 - 145.965
M-CUBED/EXP-1 PRIME 25 Jun 22:53:01 22:56:41 85° 109° (ESE) 23:00:38 437.505
PCSat 25 Jun 22:54:10 22:57:33 17° 255° (WSW) 23:00:55 145.827
RS-15 25 Jun 22:55:47 23:08:02 69° 316° (NW) 23:20:24 29.354- 29.394
DELFI C3 25 Jun 23:01:11 23:02:48 12° 272° (W) 23:04:25 145.870
PRISM 25 Jun 23:10:10 23:14:17 82° 286° (WNW) 23:18:25 437.425
TIGRISAT 25 Jun 23:16:24 23:21:06 79° 286° (WNW) 23:25:41 435.000
QB50P2 25 Jun 23:24:22 23:25:38 11° 87° (E) 23:26:52 145.880/145.840
O/OREOS (USA 219) 25 Jun 23:30:32 23:34:09 23° 310° (NW) 23:37:48 437.305
BEESAT 2 25 Jun 23:33:00 23:36:35 30° 320° (NW) 23:40:14 435.950
YUBILEINY 25 Jun 23:37:04 23:45:26 47° 290° (WNW) 23:53:55 435.215
SO-50 25 Jun 23:41:54 23:46:08 40° 240° (WSW) 23:50:23 436.795
AIST 2D 25 Jun 23:43:16 23:46:24 29° 96° (E) 23:49:28 435.315
ESTCUBE 1 25 Jun 23:45:00 23:49:27 58° 259° (W) 23:53:54 437.505/2401.250
VELOX 1 25 Jun 23:46:58 23:51:03 41° 68° (ENE) 23:55:11 145.980
EO-79 25 Jun 23:47:30 23:50:27 18° 91° (E) 23:53:23 145.935-145.965
FO-29 25 Jun 23:51:26 23:58:49 50° 295° (WNW) 00:06:16 435.910
UNISAT 6 25 Jun 23:58:57 00:03:04 31° 295° (WNW) 00:07:07 437.425
DUCHIFAT 1 26 Jun 00:01:22 00:04:33 20° 92° (E) 00:07:42 145.980
DX 1 26 Jun 00:07:17 00:10:49 25° 64° (ENE) 00:14:21 434.975-435.025
SPROUT 26 Jun 00:08:00 00:12:15 69° 73° (ENE) 00:16:32 437.525
50 SAT 26 Jun 00:09:00 00:11:55 27° 68° (ENE) 00:14:51 437.505
NANOSAT C BR1 26 Jun 00:09:32 00:13:12 27° 95° (E) 00:16:48 145.865
NO-84 26 Jun 00:10:15 00:14:15 45° 341° (NNW) 00:18:27 435.350 FM
BEESAT 3 26 Jun 00:14:59 00:16:23 11° 338° (NNW) 00:17:46 437.485
LO-87 26 Jun 00:23:50 00:25:04 11° 271° (W) 00:26:18 145.935 - 145.965
UKube-1 26 Jun 00:24:25 00:27:57 25° 64° (ENE) 00:31:30 .
M-CUBED/EXP-1 PRIME 26 Jun 00:29:33 00:30:42 11° 306° (NW) 00:31:51 437.505
POLYITAN 1 26 Jun 00:46:51 00:51:10 70° 102° (ESE) 00:55:25 437.675
PRISM 26 Jun 00:48:02 00:48:52 11° 304° (NW) 00:49:42 437.425
TIGRISAT 26 Jun 00:55:05 00:56:59 12° 305° (NW) 00:58:52 435.000
QB50P2 26 Jun 00:57:42 01:02:01 84° 288° (WNW) 01:06:18 145.880/145.840
BUGSAT 1 26 Jun 01:10:55 01:14:47 33° 96° (E) 01:18:37 437.445
Oscar 19 26 Jun 01:11:36 01:14:38 16° 88° (E) 01:17:40 437.125/150
RS-15 26 Jun 01:11:57 01:23:15 38° 347° (NNW) 01:34:25 29.354- 29.394
BEESAT 2 26 Jun 01:15:26 01:15:37 10° 342° (NNW) 01:15:48 435.950
AIST 2D 26 Jun 01:16:44 01:19:28 21° 294° (WNW) 01:22:09 435.315
EO-79 26 Jun 01:22:20 01:26:31 51° 289° (WNW) 01:30:39 145.935-145.965
VELOX 1 26 Jun 01:24:08 01:27:39 23° 266° (W) 01:31:12 145.980
DUCHIFAT 1 26 Jun 01:36:21 01:40:26 45° 290° (WNW) 01:44:29 145.980
FO-29 26 Jun 01:38:29 01:42:09 14° 316° (NW) 01:45:52 435.910
ITUPSAT 1 26 Jun 01:41:56 01:45:23 20° 59° (ENE) 01:48:51 437.325
YUBILEINY 26 Jun 01:42:05 01:45:09 12° 317° (NW) 01:48:13 435.215
50 SAT 26 Jun 01:42:08 01:44:44 20° 266° (W) 01:47:21 437.505
DX 1 26 Jun 01:42:46 01:46:49 39° 262° (W) 01:50:54 434.975-435.025
NANOSAT C BR1 26 Jun 01:45:04 01:48:57 34° 292° (WNW) 01:52:47 145.865
SPROUT 26 Jun 01:46:29 01:48:38 14° 272° (W) 01:50:48 437.525
NO-84 26 Jun 01:48:41 01:52:35 32° 2° (N) 01:56:35 435.350 FM
BEESAT 26 Jun 01:51:27 01:55:14 24° 62° (ENE) 01:59:04 436.000
UKube-1 26 Jun 01:59:49 02:03:49 37° 262° (W) 02:07:51 .
Gurwin Techsat 1B 26 Jun 02:04:18 02:08:56 29° 94° (E) 02:13:32 435.225
POLYITAN 1 26 Jun 02:23:56 02:26:25 15° 301° (WNW) 02:28:54 437.675
QB50P2 26 Jun 02:35:41 02:37:05 11° 304° (WNW) 02:38:29 145.880/145.840
AO-7 26 Jun 02:41:06 02:45:12 14° 84° (E) 02:49:16 .
BUGSAT 1 26 Jun 02:46:25 02:50:03 28° 294° (WNW) 02:53:40 437.445
Oscar 19 26 Jun 02:49:25 02:54:34 78° 287° (WNW) 02:59:41 437.125/150
MOZHAYETS 4 26 Jun 02:57:46 03:02:18 57° 72° (ENE) 03:06:52
KKS-1 26 Jun 02:58:37 02:59:05 10° 54° (NE) 02:59:32 437.445
